Regional Weather Roundup
Issued by NWS Bismarck, ND

Home | Current Version | Previous Version | Text Only | Print | Product List | Glossary On
Versions: 1 2 3 4 5 6 7 8 9 10 11 12 13 14 15 16 17 18 19 20 21 22 23 24 25 26 27 28 29 30 31 32 33 34 35 36 37 38 39 40 41 42 43 44 45 46 47 48 49 50
000
ASUS43 KBIS 101002
RWRBIS

NWR BROADCAST TEXT
NATIONAL WEATHER SERVICE BISMARCK ND
400 AM CST SAT DEC 10 2016

NOTE: "FAIR" INDICATES FEW OR NO CLOUDS BELOW 12,000 FEET WITH NO
SIGNIFICANT WEATHER AND/OR OBSTRUCTIONS TO VISIBILITY.


CITY           SKY/WX    TMP DP  RH WIND       PRES   REMARKS
WILLISTON      CLOUDY   -15 -20  78 N3        30.35F
MINOT          CLOUDY   -18 -23  77 SW6       30.41F WCI -33
MINOT AFB      CLOUDY   -23 -29  72 SW5       30.41F WCI -37
BISMARCK       CLOUDY   -13 -17  82 NE5       30.45F WCI -25
DICKINSON      CLOUDY   -10 -16  74 E5        30.25F WCI -22
GARRISON         N/A    -13 -17  82 NE5       30.38F WCI -25
HETTINGER ARPT CLOUDY    -6 -10  83 E9        30.25F WCI -23
JAMESTOWN      CLOUDY   -15 -19  82 NW6       30.46F WCI -29
CARRINGTON     FAIR     -17 -22  76 W8        30.47F WCI -34
HAZEN          CLOUDY   -17 -24  70 CALM      30.42F
STANLEY        FAIR     -20 -26  76 CALM      30.34F
WATFORD CITY   CLOUDY   -13 -20  70 SE7       30.33F WCI -29
$$

CITY           SKY/WX    TMP DP  RH WIND       PRES   REMARKS
GRAND FORKS    CLOUDY    -3  -9  75 N7        30.54S WCI -16
GRAND FORKS AF CLOUDY    -4 -10  74 NW5       30.53F WCI -14
DEVILS LAKE    CLOUDY   -15 -19  82 W6        30.47S WCI -29
FARGO          CLOUDY    -6 -13  71 W6        30.53F WCI -19
GRAFTON        FAIR      -9 -15  77 W5        30.56F WCI -21
GWINNER        FAIR      -8 -13  77 NW6       30.50S WCI -21
LANGDON        FAIR     -18 -22  83 W5        30.44S WCI -31
$$

CITY           SKY/WX    TMP DP  RH WIND       PRES   REMARKS
ABERDEEN       CLOUDY    -7 -15  68 N3        30.51F
MOBRIDGE       CLOUDY    -6 -13  71 E10       30.38F WCI -24
BUFFALO          N/A      0  -5  79 SE13      30.06F WCI -18
RAPID CITY     CLOUDY     3  -2  79 S16       30.12F WCI -16
GLASGOW        CLOUDY    -5 -10  79 SE14      30.17F WCI -25
SIDNEY         CLOUDY   -10 -14  82 NE6       30.31F WCI -23
WOLF POINT     CLOUDY    -6 -13  71 E13       30.27F WCI -25
GLENDIVE       FLURRIES  -6 -11  79 NE10      30.21F WCI -24
MILES CITY     FLURRIES   6  -1  73 E7        30.12F WCI  -6
BAKER          CLOUDY    -1  -6  79 SE20      30.14F WCI -23
$$

CITY           SKY/WX    TMP DP  RH WIND       PRES   REMARKS
BILLINGS       LGT SNOW   6   3  87 CALM      29.96F FOG
GREAT FALLS    CLOUDY     0  -4  83 NE3       29.88F
$$




USA.gov is the U.S. government's official web portal to all federal, state and local government web resources and services.